IZ1UKX-13 Weather Reports


Display with metric or nautical units.
time (UTC)temp
F
wind
direction
speed
MPH
gust
MPH
rain 1hr
in
rain 24hr
in
rain mn
in
humidity
%
barometer
mb
20260506205204 54 113 1.0 0.0 0.00 0.38 0.00 83 1024.5
20260506204704 54 113 2.0 4.0 0.00 0.38 0.00 83 1024.5
20260506204204 54 113 2.0 2.0 0.00 0.38 0.00 83 1024.5
20260506203704 54 113 1.0 2.0 0.00 0.38 0.00 83 1024.5
20260506203204 54 113 2.0 2.0 0.00 0.38 0.00 83 1024.5
20260506202704 54 113 1.0 2.0 0.00 0.38 0.00 83 1024.5
20260506202205 54 113 2.0 2.0 0.00 0.38 0.00 82 1024.5
20260506201704 54 158 2.0 2.0 0.00 0.38 0.00 82 1024.5
20260506201204 54 158 2.0 2.0 0.00 0.38 0.00 82 1024.5
20260506200704 54 158 2.0 2.0 0.00 0.38 0.00 81 1024.5
20260506200204 54 158 2.0 2.0 0.00 0.38 0.00 81 1024.5
20260506195704 55 158 2.0 4.0 0.00 0.38 0.00 81 1024.5
20260506195204 55 158 3.0 4.0 0.00 0.38 0.00 81 1024.5
20260506194704 55 158 2.0 2.0 0.00 0.38 0.00 81 1024.5
20260506194204 55 158 2.0 2.0 0.00 0.38 0.00 81 1024.5
20260506193704 55 135 2.0 2.0 0.00 0.38 0.00 81 1024.5
20260506193204 55 135 2.0 4.0 0.00 0.38 0.00 81 1024.5
20260506192704 55 135 3.0 7.0 0.00 0.38 0.00 81 1024.5
20260506192204 55 90 3.0 7.0 0.00 0.38 0.00 80 1024.5
20260506191704 55 158 2.0 2.0 0.00 0.38 0.00 81 1024.5
20260506191204 55 158 1.0 2.0 0.00 0.38 0.00 81 1024.5
20260506190704 55 158 3.0 4.0 0.00 0.38 0.00 81 1024.5
20260506190204 55 158 2.0 2.0 0.00 0.38 0.00 81 1024.5
20260506185705 55 180 2.0 7.0 0.00 0.38 0.00 81 1024.5
20260506185204 55 158 2.0 4.0 0.00 0.38 0.00 80 1024.5
20260506184705 55 68 2.0 4.0 0.00 0.38 0.00 81 1024.5
20260506184204 56 158 2.0 4.0 0.00 0.38 0.00 80 1024.5
20260506183704 56 158 3.0 7.0 0.00 0.38 0.00 80 1024.5
20260506183204 56 180 1.0 0.0 0.00 0.38 0.00 80 1024.5
20260506182705 56 113 4.0 4.0 0.00 0.38 0.00 79 1024.5
20260506182205 56 203 2.0 4.0 0.00 0.38 0.00 80 1024.5
20260506181704 56 158 3.0 4.0 0.00 0.38 0.00 79 1024.5
20260506181204 56 158 1.0 0.0 0.00 0.38 0.00 79 1024.5
20260506180704 56 158 2.0 2.0 0.00 0.38 0.00 79 1024.5
20260506180204 57 68 3.0 4.0 0.00 0.38 0.00 79 1024.5
20260506175704 57 113 1.0 2.0 0.00 0.38 0.00 79 1024.0
20260506175204 57 113 2.0 4.0 0.00 0.38 0.00 78 1024.0
20260506174705 57 158 1.0 4.0 0.00 0.38 0.00 78 1024.0
20260506174204 57 158 2.0 2.0 0.00 0.38 0.00 77 1024.0
20260506173704 57 158 2.0 4.0 0.00 0.38 0.00 77 1024.0
20260506173204 57 158 2.0 4.0 0.00 0.38 0.00 77 1024.0
20260506172704 57 158 2.0 2.0 0.00 0.38 0.00 76 1024.0
20260506172204 58 113 2.0 4.0 0.00 0.38 0.00 76 1024.0
20260506171704 57 113 1.0 2.0 0.00 0.38 0.00 75 1024.0
20260506171205 58 135 2.0 2.0 0.00 0.38 0.00 74 1024.0
20260506170704 58 135 2.0 2.0 0.00 0.38 0.00 74 1024.0
20260506170204 58 135 2.0 4.0 0.00 0.38 0.00 73 1024.0
20260506165704 58 113 2.0 4.0 0.00 0.38 0.00 73 1024.0
20260506165205 58 113 2.0 2.0 0.00 0.38 0.00 74 1024.0
20260506164704 58 113 1.0 2.0 0.00 0.38 0.00 74 1024.0
20260506164204 58 90 2.0 2.0 0.00 0.38 0.00 73 1024.0
20260506163704 58 113 2.0 2.0 0.00 0.38 0.00 72 1024.0
20260506163204 59 113 0.0 0.0 0.00 0.38 0.00 72 1024.0
20260506162705 59 135 3.0 4.0 0.00 0.38 0.00 71 1024.0
20260506162204 59 113 3.0 4.0 0.00 0.38 0.00 70 1024.0
20260506161704 59 135 1.0 0.0 0.00 0.38 0.00 73 1024.0
20260506161204 59 135 2.0 2.0 0.00 0.38 0.00 72 1024.0
20260506160704 60 135 0.0 0.0 0.00 0.38 0.00 71 1024.0
20260506160205 61 158 3.0 7.0 0.00 0.38 0.00 70 1023.6
20260506155204 62 90 1.0 2.0 0.00 0.38 0.00 71 1023.6
20260506154704 62 158 1.0 2.0 0.00 0.38 0.00 71 1023.6
20260506154204 62 135 3.0 2.0 0.00 0.38 0.00 70 1023.6
20260506153705 62 90 2.0 2.0 0.00 0.38 0.00 70 1023.6
20260506153205 62 248 2.0 2.0 0.00 0.38 0.00 69 1023.6
20260506152704 62 113 3.0 9.0 0.00 0.38 0.00 69 1023.6
20260506152204 62 135 4.0 7.0 0.00 0.38 0.00 69 1023.6
20260506151704 62 135 3.0 2.0 0.00 0.38 0.00 69 1023.6
20260506151205 62 90 3.0 4.0 0.00 0.38 0.00 71 1023.6
20260506150704 62 158 4.0 4.0 0.00 0.38 0.00 68 1023.6
20260506150204 63 338 2.0 0.0 0.00 0.38 0.00 69 1023.6
20260506145704 63 158 3.0 2.0 0.00 0.38 0.00 70 1023.6
20260506145205 63 158 1.0 4.0 0.00 0.38 0.00 68 1023.6
20260506144705 63 158 1.0 0.0 0.00 0.38 0.00 68 1023.6
20260506144204 62 158 3.0 4.0 0.00 0.38 0.00 69 1023.6
20260506143704 63 135 3.0 7.0 0.00 0.38 0.00 68 1023.6
20260506143204 62 158 3.0 4.0 0.00 0.38 0.00 68 1023.6
20260506142704 64 113 2.0 4.0 0.00 0.38 0.00 65 1023.6
20260506142204 66 180 3.0 7.0 0.00 0.38 0.00 63 1023.2
20260506141704 66 135 1.0 0.0 0.00 0.38 0.00 66 1023.2
20260506141204 65 158 3.0 7.0 0.00 0.38 0.00 66 1023.2
20260506141020 65 158 3.0 7.0 0.00 0.38 0.00 65 1023.2
20260506140907 65 135 3.0 4.0 0.00 0.38 0.00 66 1023.2
20260506140408 65 113 3.0 7.0 0.00 0.38 0.00 66 1023.2
20260506135907 65 158 3.0 7.0 0.00 0.38 0.00 66 1023.2
20260506135408 65 180 2.0 4.0 0.00 0.38 0.00 67 1023.2
20260506134908 65 135 3.0 4.0 0.00 0.38 0.00 65 1023.2
20260506134407 66 90 2.0 2.0 0.00 0.38 0.00 65 1023.2
20260506133908 66 90 5.0 2.0 0.00 0.38 0.00 65 1023.2
20260506133408 66 180 4.0 7.0 0.00 0.38 0.00 66 1023.2
20260506132907 65 68 3.0 4.0 0.00 0.38 0.00 68 1023.2
20260506132408 65 90 3.0 4.0 0.00 0.38 0.00 68 1023.2
20260506131908 65 203 3.0 4.0 0.00 0.38 0.00 68 1023.2
20260506131408 64 113 2.0 4.0 0.00 0.38 0.00 73 1023.6
20260506130908 63 158 2.0 4.0 0.00 0.38 0.00 74 1023.6
20260506130408 63 158 3.0 4.0 0.00 0.38 0.00 74 1023.6
20260506125907 63 135 2.0 4.0 0.00 0.38 0.00 74 1023.6
20260506125408 63 113 2.0 4.0 0.00 0.38 0.00 74 1023.6
20260506124907 64 135 3.0 7.0 0.00 0.38 0.00 72 1023.2
20260506124407 65 113 2.0 2.0 0.00 0.38 0.00 70 1023.2
20260506123908 66 158 3.0 4.0 0.00 0.38 0.00 69 1023.2
20260506123408 66 180 2.0 2.0 0.00 0.38 0.00 69 1023.2
20260506122908 66 180 2.0 4.0 0.00 0.38 0.00 71 1023.2
20260506122408 65 158 4.0 7.0 0.00 0.38 0.00 71 1023.2
20260506121908 65 270 3.0 2.0 0.00 0.38 0.00 75 1023.2
20260506121408 63 158 3.0 4.0 0.00 0.38 0.00 76 1023.6
20260506120908 62 248 5.0 9.0 0.00 0.38 0.00 76 1023.6
20260506120408 62 158 1.0 2.0 0.00 0.38 0.00 78 1023.6
20260506115907 62 135 2.0 2.0 0.00 0.38 0.00 78 1023.6
20260506115408 62 90 2.0 2.0 0.00 0.38 0.00 76 1023.6
20260506114907 63 158 2.0 4.0 0.00 0.38 0.00 75 1023.6
20260506114407 65 158 3.0 4.0 0.00 0.38 0.00 71 1023.2
20260506113908 65 180 2.0 2.0 0.00 0.38 0.00 69 1023.2
20260506113408 65 158 2.0 2.0 0.00 0.38 0.00 71 1023.2
20260506112907 64 203 1.0 0.0 0.00 0.38 0.00 72 1023.6
20260506112407 64 90 4.0 4.0 0.00 0.38 0.00 70 1023.6
20260506111908 64 135 2.0 2.0 0.00 0.38 0.00 72 1023.2
20260506111408 65 158 2.0 2.0 0.00 0.38 0.00 70 1023.2
20260506110907 66 158 2.0 2.0 0.00 0.38 0.00 68 1023.2
20260506110408 66 158 2.0 4.0 0.00 0.38 0.00 69 1023.2
20260506105908 66 248 3.0 2.0 0.00 0.38 0.00 70 1023.2
20260506105408 65 158 2.0 2.0 0.00 0.38 0.00 70 1023.2
20260506104908 64 158 5.0 7.0 0.00 0.38 0.00 72 1023.2
20260506104408 65 180 2.0 2.0 0.00 0.38 0.00 71 1023.2
20260506103907 64 180 2.0 2.0 0.00 0.38 0.00 75 1023.2
20260506103407 64 158 2.0 2.0 0.00 0.38 0.00 76 1023.6
20260506102908 63 180 3.0 2.0 0.00 0.38 0.00 75 1023.6
20260506102408 64 158 3.0 2.0 0.00 0.38 0.00 76 1023.6
20260506101907 64 135 2.0 2.0 0.00 0.38 0.00 76 1023.6
20260506101408 63 158 2.0 4.0 0.00 0.38 0.00 79 1023.6
20260506101143 62 180 4.0 4.0 0.00 0.38 0.00 80 1023.6
20260506100743 61 158 3.0 4.0 0.00 0.38 0.00 80 1023.6
20260506100242 61 180 2.0 4.0 0.00 0.38 0.00 82 1023.6
20260506095742 61 113 2.0 2.0 0.00 0.38 0.00 82 1023.6
20260506095243 61 203 2.0 2.0 0.00 0.38 0.00 82 1023.6
20260506094742 61 90 2.0 2.0 0.00 0.38 0.00 83 1023.6
20260506094242 61 68 2.0 2.0 0.00 0.38 0.00 82 1023.6
20260506093742 61 135 2.0 7.0 0.00 0.38 0.00 82 1023.6
20260506093243 62 158 3.0 4.0 0.00 0.38 0.00 82 1023.6
20260506092743 61 158 2.0 2.0 0.00 0.38 0.00 83 1023.6
20260506092243 61 113 2.0 7.0 0.00 0.38 0.00 85 1023.6
20260506091742 60 225 4.0 4.0 0.00 0.38 0.00 87 1024.0
20260506091242 59 203 1.0 0.0 0.00 0.38 0.00 88 1024.0
20260506090742 59 113 3.0 2.0 0.00 0.38 0.00 88 1024.0
20260506090243 59 45 4.0 4.0 0.00 0.38 0.00 87 1024.0
20260506085742 60 158 3.0 4.0 0.00 0.38 0.00 86 1024.0
20260506085243 59 158 4.0 2.0 0.00 0.38 0.00 89 1024.0
20260506084742 58 113 2.0 4.0 0.00 0.38 0.00 90 1024.0
20260506084243 58 135 2.0 4.0 0.00 0.38 0.00 90 1024.0
20260506083742 58 180 4.0 4.0 0.00 0.38 0.00 91 1024.0
20260506083242 58 113 5.0 7.0 0.00 0.38 0.00 92 1024.0
20260506082742 58 135 3.0 7.0 0.00 0.38 0.00 93 1024.0
20260506082242 58 135 2.0 4.0 0.00 0.38 0.00 93 1024.0
20260506081743 58 135 4.0 7.0 0.00 0.38 0.00 93 1024.0
20260506081242 57 270 5.0 7.0 0.00 0.38 0.00 94 1024.0
20260506080742 57 158 4.0 4.0 0.00 0.38 0.00 94 1024.0
20260506080242 57 90 3.0 2.0 0.00 0.38 0.00 95 1024.0
20260506073242 57 180 3.0 4.0 0.17 0.38 0.00 95 1024.0
20260506072743 56 293 2.0 4.0 0.17 0.38 0.00 96 1024.0
20260506072242 56 158 4.0 9.0 0.17 0.38 0.00 95 1024.5
20260506071742 55 158 1.0 0.0 0.14 0.35 0.00 95 1024.5
20260506071242 55 45 3.0 7.0 0.13 0.33 0.00 93 1024.5
20260506070742 55 135 1.0 0.0 0.11 0.31 0.00 92 1024.5
20260506070243 56 135 1.0 0.0 0.08 0.28 0.00 94 1024.0
20260506062242 56 158 2.0 4.0 0.00 0.00 0.00 93 1024.0
20260506061742 56 158 1.0 2.0 0.00 0.00 0.00 93 1024.0
20260506061217 56 158 0.0 0.0 0.00 0.77 0.00 94 1024.0
20260506060718 56 158 0.0 0.0 0.00 0.77 0.00 94 1024.0
20260506060217 56 180 1.0 0.0 0.00 0.77 0.00 95 1024.0
20260506051217 52 113 0.0 0.0 0.02 0.77 0.00 97 1024.9
20260506050717 52 113 0.0 0.0 0.00 0.76 0.00 96 1024.9
20260506050218 52 90 0.0 2.0 0.00 0.76 0.00 97 1024.9
20260506044718 52 90 2.0 2.0 0.05 0.76 0.00 97 1024.9
20260506044217 52 90 0.0 0.0 0.05 0.76 0.00 97 1024.9
20260506043717 52 90 0.0 0.0 0.05 0.76 0.00 96 1024.9
20260506043217 52 90 1.0 2.0 0.05 0.76 0.00 96 1024.9
20260506042718 52 90 2.0 2.0 0.05 0.76 0.00 96 1024.9
20260506042217 52 90 0.0 2.0 0.03 0.74 0.00 96 1024.9
20260506041717 51 90 1.0 0.0 0.02 0.72 0.00 96 1024.9
20260506041217 51 90 4.0 4.0 0.02 0.72 0.00 96 1024.9
20260506040717 51 113 2.0 2.0 0.00 0.71 0.00 96 1024.9
20260506040217 51 135 0.0 0.0 0.00 0.71 0.00 96 1024.9
20260506035717 51 135 2.0 4.0 0.00 0.71 0.00 96 1024.9
20260506035217 51 158 0.0 0.0 0.00 0.71 0.00 96 1024.9
20260506034718 51 158 0.0 0.0 0.00 0.71 0.00 96 1024.9
20260506034217 52 158 1.0 2.0 0.00 0.71 0.00 96 1024.9
20260506033717 52 158 1.0 2.0 0.00 0.71 0.00 95 1024.9
20260506033217 52 158 1.0 2.0 0.00 0.71 0.00 96 1024.9
20260506032717 52 113 1.0 0.0 0.00 0.71 0.00 96 1024.9
20260506032217 52 158 2.0 2.0 0.00 0.71 0.00 96 1024.9
20260506031718 52 158 1.0 0.0 0.00 0.71 0.00 97 1024.9
20260506031218 52 158 0.0 0.0 0.00 0.71 0.00 97 1024.9
20260506030717 52 158 0.0 0.0 0.00 0.71 0.00 97 1024.9
20260506030217 53 158 0.0 0.0 0.00 0.71 0.00 97 1024.5
20260506025717 53 158 0.0 0.0 0.09 0.71 0.00 97 1024.5
20260506025217 53 158 0.0 0.0 0.08 0.69 0.00 97 1024.9
20260506024717 52 158 0.0 0.0 0.08 0.69 0.00 97 1024.9
20260506024218 53 158 0.0 0.0 0.08 0.69 0.00 97 1024.9
20260506023717 53 158 0.0 0.0 0.08 0.69 0.00 97 1024.9
20260506023217 53 158 0.0 0.0 0.08 0.69 0.00 97 1024.5
20260506022717 53 158 0.0 0.0 0.08 0.69 0.00 97 1024.5
20260506022217 53 158 0.0 0.0 0.06 0.68 0.00 97 1024.5
20260506021717 53 158 0.0 0.0 0.05 0.66 0.00 97 1024.5
20260506021218 53 158 0.0 0.0 0.05 0.66 0.00 97 1024.5
20260506020717 53 158 0.0 0.0 0.03 0.65 0.00 97 1024.5
20260506020218 53 158 0.0 0.0 0.00 0.61 0.00 97 1024.5
20260506015717 53 158 0.0 0.0 0.44 0.60 0.00 97 1024.5
20260506015217 53 158 0.0 0.0 0.41 0.57 0.00 97 1024.5
20260506014718 53 158 0.0 0.0 0.38 0.54 0.00 97 1024.5
20260506014217 53 158 0.0 0.0 0.30 0.46 0.00 97 1024.5
20260506013717 53 158 1.0 0.0 0.25 0.41 0.00 97 1024.5
20260506013218 53 158 0.0 0.0 0.19 0.35 0.00 97 1024.5
20260506012717 53 158 1.0 2.0 0.19 0.35 0.00 97 1024.5
20260506012217 53 158 0.0 0.0 0.17 0.33 0.00 97 1024.5
20260506011717 53 158 0.0 0.0 0.16 0.31 0.00 97 1024.5
20260506011217 53 158 0.0 0.0 0.09 0.25 0.00 97 1024.5
20260506010718 53 158 0.0 0.0 0.05 0.20 0.00 97 1024.5
20260506010217 53 158 0.0 0.0 0.02 0.17 0.00 96 1024.5
20260506005717 53 158 0.0 0.0 0.06 0.13 0.00 96 1024.5
20260506005217 53 158 0.0 0.0 0.05 0.11 0.00 96 1024.5
20260506004717 53 158 0.0 0.0 0.03 0.09 0.00 96 1024.5
20260506004218 53 158 0.0 0.0 0.00 0.06 0.00 96 1024.5
20260506003717 53 158 0.0 0.0 0.00 0.06 0.00 96 1024.5
20260506003217 53 158 0.0 0.0 0.00 0.06 0.00 96 1024.5
20260506002717 53 158 0.0 0.0 0.00 0.06 0.00 96 1024.5
20260506002217 53 158 0.0 0.0 0.00 0.06 0.00 96 1024.5
20260506001717 53 158 0.0 0.0 0.00 0.06 0.00 96 1024.5
20260506001217 53 158 0.0 0.0 0.00 0.06 0.00 95 1024.5
20260506000717 53 158 0.0 0.0 0.00 0.06 0.00 96 1024.5
20260506000219 53 158 0.0 0.0 0.00 0.06 0.00 95 1024.5
20260505235717 53 158 0.0 0.0 0.03 0.06 0.00 95 1024.5
20260505235217 53 158 0.0 0.0 0.03 0.06 0.00 95 1024.5
20260505234717 53 158 0.0 0.0 0.03 0.06 0.00 95 1024.5
20260505234217 53 158 0.0 0.0 0.03 0.06 0.00 95 1024.5
20260505233717 53 158 0.0 0.0 0.03 0.06 0.00 95 1024.5
20260505233217 53 158 0.0 0.0 0.02 0.05 0.00 95 1024.5
20260505232717 53 158 0.0 0.0 0.02 0.05 0.00 95 1024.5
20260505232217 53 158 0.0 0.0 0.00 0.03 0.00 95 1024.5
20260505231717 53 158 0.0 0.0 0.00 0.03 0.00 95 1024.5
20260505231218 53 158 0.0 0.0 0.00 0.03 0.00 95 1024.5
20260505230717 53 158 0.0 0.0 0.00 0.03 0.00 95 1024.5
20260505230217 53 158 0.0 0.0 0.00 0.03 0.00 95 1024.5
20260505225717 53 158 0.0 0.0 0.03 0.03 0.00 95 1024.5
20260505225217 53 158 0.0 0.0 0.02 0.02 0.00 94 1024.5
20260505224717 53 158 0.0 0.0 0.02 0.02 0.00 94 1024.5
20260505224217 53 158 0.0 0.0 0.02 0.02 0.00 94 1024.5
20260505223717 53 158 0.0 0.0 0.00 0.00 0.00 94 1024.5
20260505223217 53 158 0.0 0.0 0.00 0.00 0.00 94 1024.5
20260505222717 53 158 0.0 0.0 0.00 0.00 0.00 94 1024.5
20260505222217 53 158 0.0 0.0 0.00 0.00 0.00 93 1024.5
20260505221717 53 158 0.0 0.0 0.00 0.00 0.00 94 1024.5
20260505221217 53 158 0.0 0.0 0.00 0.00 0.00 93 1024.5
20260505220717 53 158 0.0 0.0 0.00 0.00 0.00 93 1024.5
20260505220217 53 158 0.0 0.0 0.00 0.00 0.00 93 1024.5
20260505215717 53 158 0.0 0.0 0.00 0.00 0.00 93 1024.5
20260505215217 53 158 0.0 0.0 0.00 0.00 0.00 93 1024.5
20260505214717 53 158 0.0 0.0 0.00 0.00 0.00 93 1024.5
20260505214217 54 158 0.0 0.0 0.00 0.00 0.00 92 1024.5
20260505213717 54 158 0.0 0.0 0.00 0.00 0.00 92 1024.5
20260505213217 54 158 0.0 0.0 0.00 0.00 0.00 92 1024.5
20260505212717 54 158 0.0 0.0 0.00 0.00 0.00 92 1024.5
20260505212217 54 158 0.0 0.0 0.00 0.00 0.00 92 1024.5
20260505211717 54 158 0.0 0.0 0.00 0.00 0.00 92 1024.5
20260505211218 54 158 0.0 0.0 0.00 0.00 0.00 92 1024.5
20260505210717 55 158 1.0 2.0 0.00 0.00 0.00 92 1024.5
20260505210217 55 158 1.0 2.0 0.00 0.00 0.00 92 1024.5
20260505205717 55 158 0.0 0.0 0.00 0.00 0.00 92 1024.5